This demonstration page uses our WeatherBlox Daily Observations layout. Learn more.

36.17497, -115.13722

Hourly Observations for August 27, 2018

Temp ( °F °C ) Dew Point ( °F °C ) Humidity (%) Winds ( mph kmh ) Pressure ( in mb ) Visibility ( mi km ) Precip ( " mm )
12:53 am 00:53 Clear 88 31.1 27 -2.8 11 11 S 18 30 29.74 1007 10 16.0934 0 0
1:53 am 01:53 Clear 85 29.4 28 -2.2 13 13 S 13 20 29.73 1007 10 16.0934 0 0
2:53 am 02:53 Clear 82 27.8 29 -1.7 14 14 S 8 13 29.73 1007 10 16.0934 0 0
3:53 am 03:53 Clear 81 27.2 34 1.1 18 18 S 12 19 29.73 1007 10 16.0934 0 0
4:53 am 04:53 Clear 80 26.7 35 1.7 20 20 S 7 11 29.73 1007 10 16.0934 0 0
5:53 am 05:53 Clear 76 24.4 36 2.2 23 23 NNE 6 9 29.75 1008 10 16.0934 0 0
6:53 am 06:53 Sunny 76 24.4 37 2.8 24 24 N 8 13 29.77 1008 10 16.0934 0 0
7:53 am 07:53 Sunny 80 26.7 34 1.1 19 19 NW 9 15 29.79 1009 10 16.0934 0 0
8:53 am 08:53 Sunny 84 28.9 35 1.7 17 17 NNE 7 11 29.79 1009 10 16.0934 0 0
9:53 am 09:53 Sunny 85 29.4 35 1.7 17 17 Calm 29.81 1009 10 16.0934 0 0
10:53 am 10:53 Sunny 87 30.6 33 0.6 14 14 SSE 5 7 29.81 1010 10 16.0934 0 0
11:53 am 11:53 Sunny 92 33.3 31 -0.6 11 11 E 5 7 29.79 1009 10 16.0934 0 0
12:53 pm 12:53 Sunny 93 33.9 29 -1.7 10 10 VRB 3 6 29.76 1008 10 16.0934 0 0
1:53 pm 13:53 Sunny 97 36.1 24 -4.4 7 7 SSE 7 11 29.74 1007 10 16.0934 0 0
2:53 pm 14:53 Sunny 100 37.8 19 -7.2 5 5 SW 13 20 29.7 1006 10 16.0934 0 0
3:53 pm 15:53 Sunny 101 38.3 21 -6.1 6 6 SW 18 30 29.69 1005 10 16.0934 0 0
4:53 pm 16:53 Sunny 100 37.8 23 -5 6 6 WSW 20 31 29.68 1005 10 16.0934 0 0
5:53 pm 17:53 Sunny 99 37.2 23 -5 6 6 WSW 17 28 29.67 1005 10 16.0934 0 0
6:53 pm 18:53 Sunny 98 36.7 21 -6.1 6 6 WSW 12 19 29.67 1005 10 16.0934 0 0
7:53 pm 19:53 Clear 95 35 16 -8.9 5 5 SW 14 22 29.67 1005 10 16.0934 0 0
8:53 pm 20:53 Clear 93 33.9 18 -7.8 6 6 SW 13 20 29.7 1006 10 16.0934 0 0
9:53 pm 21:53 Clear 91 32.8 23 -5 8 8 SW 8 13 29.71 1006 10 16.0934 0 0
10:53 pm 22:53 Clear 88 31.1 27 -2.8 11 11 SW 14 22 29.71 1006 10 16.0934 0 0
11:53 pm 23:53 Clear 86 30 28 -2.2 12 12 S 13 20 29.71 1006 10 16.0934 0 0

Powered by AerisWeather